| time (UTC) | temp F | wind direction | speed MPH | gust MPH | rain 1hr in | rain 24hr in | rain mn in | humidity % | barometer mb |
| 20260505010204 | 72 | 292 | 0.0 | 1.0 | 0.00 | 0.01 | 0.01 | 57 | 1011.9 |
| 20260505005705 | 73 | 255 | 0.0 | 1.0 | 0.00 | 0.01 | 0.01 | 56 | 1011.9 |
| 20260505005204 | 73 | 281 | 0.0 | 3.0 | 0.00 | 0.01 | 0.01 | 54 | 1011.7 |
| 20260505004205 | 74 | 273 | 0.0 | 2.0 | 0.00 | 0.01 | 0.01 | 52 | 1011.7 |
| 20260505003705 | 74 | 267 | 0.0 | 3.0 | 0.00 | 0.01 | 0.01 | 52 | 1011.7 |
| 20260505003205 | 75 | 57 | 0.0 | 0.0 | 0.00 | 0.01 | 0.01 | 52 | 1011.7 |
| 20260505002705 | 75 | 106 | 0.0 | 2.0 | 0.00 | 0.01 | 0.01 | 51 | 1011.9 |
| 20260505002204 | 76 | 273 | 1.0 | 2.0 | 0.00 | 0.01 | 0.01 | 51 | 1012.1 |
| 20260505001705 | 76 | 272 | 1.0 | 5.0 | 0.00 | 0.01 | 0.01 | 49 | 1012.0 |
| 20260505001204 | 77 | 283 | 0.0 | 3.0 | 0.00 | 0.01 | 0.01 | 49 | 1012.0 |
| 20260505000704 | 77 | 283 | 0.0 | 2.0 | 0.00 | 0.01 | 0.01 | 49 | 1012.1 |
| 20260504235704 | 77 | 270 | 0.0 | 3.0 | 0.00 | 0.01 | 0.01 | 48 | 1012.3 |
| 20260504235205 | 77 | 258 | 1.0 | 5.0 | 0.00 | 0.01 | 0.01 | 48 | 1012.4 |
| 20260504234704 | 78 | 243 | 1.0 | 5.0 | 0.00 | 0.01 | 0.01 | 47 | 1012.4 |
| 20260504234204 | 78 | 271 | 2.0 | 6.0 | 0.00 | 0.01 | 0.01 | 47 | 1012.2 |
| 20260504233205 | 79 | 124 | 0.0 | 2.0 | 0.00 | 0.01 | 0.01 | 45 | 1012.2 |
| 20260504232205 | 80 | 257 | 2.0 | 7.0 | 0.00 | 0.01 | 0.01 | 43 | 1012.4 |
| 20260504231704 | 80 | 104 | 1.0 | 7.0 | 0.00 | 0.01 | 0.01 | 43 | 1012.4 |
| 20260504231204 | 80 | 99 | 1.0 | 6.0 | 0.00 | 0.01 | 0.01 | 43 | 1012.4 |
| 20260504230205 | 82 | 267 | 3.0 | 8.0 | 0.00 | 0.01 | 0.01 | 41 | 1012.5 |
| 20260504225704 | 82 | 273 | 1.0 | 6.0 | 0.00 | 0.01 | 0.01 | 41 | 1012.5 |
| 20260504224705 | 81 | 282 | 2.0 | 8.0 | 0.00 | 0.01 | 0.01 | 43 | 1012.6 |
| 20260504224204 | 82 | 250 | 2.0 | 5.0 | 0.00 | 0.01 | 0.01 | 42 | 1012.7 |
| 20260504223704 | 82 | 255 | 1.0 | 5.0 | 0.00 | 0.01 | 0.01 | 42 | 1012.7 |
| 20260504222704 | 82 | 280 | 1.0 | 6.0 | 0.00 | 0.01 | 0.01 | 43 | 1012.8 |
| 20260504222204 | 82 | 101 | 1.0 | 3.0 | 0.00 | 0.01 | 0.01 | 42 | 1012.8 |
| 20260504221704 | 82 | 203 | 3.0 | 8.0 | 0.00 | 0.01 | 0.01 | 43 | 1012.8 |
| 20260504221204 | 83 | 256 | 2.0 | 6.0 | 0.00 | 0.01 | 0.01 | 44 | 1012.9 |
| 20260504220704 | 83 | 288 | 0.0 | 5.0 | 0.00 | 0.01 | 0.01 | 42 | 1012.9 |
| 20260504215704 | 82 | 290 | 1.0 | 3.0 | 0.00 | 0.01 | 0.01 | 44 | 1013.1 |
| 20260504215205 | 81 | 245 | 1.0 | 6.0 | 0.00 | 0.01 | 0.01 | 44 | 1013.0 |
| 20260504214705 | 81 | 135 | 2.0 | 8.0 | 0.00 | 0.01 | 0.01 | 46 | 1013.1 |
| 20260504214204 | 81 | 276 | 3.0 | 8.0 | 0.00 | 0.01 | 0.01 | 45 | 1013.2 |
| 20260504213704 | 82 | 137 | 2.0 | 6.0 | 0.00 | 0.01 | 0.01 | 46 | 1013.1 |
| 20260504212704 | 82 | 249 | 1.0 | 9.0 | 0.00 | 0.01 | 0.01 | 45 | 1013.1 |
| 20260504212205 | 82 | 243 | 1.0 | 3.0 | 0.00 | 0.01 | 0.01 | 42 | 1013.1 |
| 20260504211204 | 83 | 132 | 1.0 | 3.0 | 0.00 | 0.01 | 0.01 | 42 | 1013.2 |
| 20260504210704 | 82 | 100 | 1.0 | 8.0 | 0.00 | 0.01 | 0.01 | 44 | 1013.4 |
| 20260504210204 | 82 | 247 | 1.0 | 7.0 | 0.00 | 0.01 | 0.01 | 43 | 1013.4 |
| 20260504205704 | 82 | 109 | 1.0 | 3.0 | 0.00 | 0.01 | 0.01 | 43 | 1013.5 |
| 20260504205205 | 82 | 291 | 3.0 | 8.0 | 0.00 | 0.01 | 0.01 | 42 | 1013.7 |
| 20260504204704 | 82 | 152 | 2.0 | 5.0 | 0.00 | 0.01 | 0.01 | 44 | 1013.9 |
| 20260504203704 | 82 | 231 | 3.0 | 10.0 | 0.00 | 0.01 | 0.01 | 44 | 1013.9 |
| 20260504203204 | 82 | 110 | 1.0 | 7.0 | 0.00 | 0.01 | 0.01 | 44 | 1013.9 |
| 20260504202704 | 82 | 132 | 2.0 | 5.0 | 0.00 | 0.01 | 0.01 | 43 | 1014.0 |
| 20260504202204 | 81 | 270 | 2.0 | 7.0 | 0.00 | 0.01 | 0.01 | 45 | 1014.2 |
| 20260504201704 | 81 | 323 | 3.0 | 9.0 | 0.00 | 0.01 | 0.01 | 46 | 1014.3 |
| 20260504201204 | 80 | 268 | 2.0 | 9.0 | 0.00 | 0.01 | 0.01 | 48 | 1014.2 |
| 20260504195705 | 81 | 301 | 2.0 | 8.0 | 0.00 | 0.01 | 0.01 | 46 | 1014.3 |
| 20260504194204 | 81 | 268 | 1.0 | 7.0 | 0.00 | 0.01 | 0.01 | 42 | 1014.7 |
| 20260504193704 | 81 | 270 | 4.0 | 10.0 | 0.00 | 0.01 | 0.01 | 44 | 1014.8 |
| 20260504193204 | 82 | 200 | 2.0 | 13.0 | 0.00 | 0.01 | 0.01 | 45 | 1014.9 |
| 20260504192704 | 82 | 143 | 2.0 | 7.0 | 0.00 | 0.01 | 0.01 | 44 | 1015.0 |
| 20260504192204 | 82 | 200 | 3.0 | 6.0 | 0.00 | 0.01 | 0.01 | 42 | 1015.0 |
| 20260504191204 | 81 | 86 | 2.0 | 7.0 | 0.00 | 0.01 | 0.01 | 44 | 1015.2 |
| 20260504190705 | 81 | 118 | 2.0 | 5.0 | 0.00 | 0.01 | 0.01 | 43 | 1015.2 |
| 20260504190204 | 80 | 143 | 2.0 | 8.0 | 0.00 | 0.01 | 0.01 | 43 | 1015.3 |
| 20260504185704 | 80 | 255 | 3.0 | 8.0 | 0.00 | 0.01 | 0.01 | 45 | 1015.3 |
| 20260504185204 | 80 | 129 | 2.0 | 7.0 | 0.00 | 0.01 | 0.01 | 48 | 1015.3 |
| 20260504184704 | 81 | 267 | 2.0 | 8.0 | 0.00 | 0.01 | 0.01 | 45 | 1015.2 |
| 20260504184204 | 81 | 268 | 1.0 | 7.0 | 0.00 | 0.01 | 0.01 | 45 | 1015.2 |
| 20260504183704 | 80 | 20 | 2.0 | 6.0 | 0.00 | 0.01 | 0.01 | 44 | 1015.4 |
| 20260504183204 | 80 | 116 | 1.0 | 5.0 | 0.00 | 0.01 | 0.01 | 47 | 1015.6 |
| 20260504182705 | 81 | 274 | 3.0 | 10.0 | 0.00 | 0.01 | 0.01 | 43 | 1015.5 |
| 20260504182205 | 81 | 270 | 1.0 | 5.0 | 0.00 | 0.01 | 0.01 | 42 | 1015.6 |
| 20260504181705 | 81 | 126 | 2.0 | 8.0 | 0.00 | 0.01 | 0.01 | 46 | 1015.7 |
| 20260504181206 | 81 | 71 | 2.0 | 6.0 | 0.00 | 0.01 | 0.01 | 42 | 1015.8 |
| 20260504180705 | 80 | 250 | 1.0 | 7.0 | 0.00 | 0.01 | 0.01 | 47 | 1015.9 |
| 20260504180205 | 81 | 278 | 1.0 | 7.0 | 0.00 | 0.01 | 0.01 | 45 | 1016.0 |
| 20260504175705 | 81 | 41 | 1.0 | 5.0 | 0.00 | 0.01 | 0.01 | 45 | 1016.0 |
| 20260504175207 | 81 | 230 | 1.0 | 6.0 | 0.00 | 0.01 | 0.01 | 45 | 1016.0 |
| 20260504174706 | 81 | 109 | 1.0 | 6.0 | 0.00 | 0.01 | 0.01 | 42 | 1016.1 |
| 20260504174205 | 80 | 146 | 2.0 | 7.0 | 0.00 | 0.01 | 0.01 | 42 | 1016.1 |
| 20260504173705 | 80 | 261 | 0.0 | 5.0 | 0.00 | 0.01 | 0.01 | 44 | 1016.2 |
| 20260504171705 | 79 | 185 | 1.0 | 7.0 | 0.00 | 0.01 | 0.01 | 45 | 1016.4 |
| 20260504171205 | 79 | 126 | 2.0 | 8.0 | 0.00 | 0.01 | 0.01 | 44 | 1016.4 |
| 20260504170705 | 79 | 153 | 2.0 | 8.0 | 0.00 | 0.01 | 0.01 | 50 | 1016.5 |
| 20260504170204 | 79 | 152 | 2.0 | 6.0 | 0.00 | 0.01 | 0.01 | 44 | 1016.3 |
| 20260504160205 | 78 | 135 | 1.0 | 6.0 | 0.00 | 0.01 | 0.01 | 43 | 1016.8 |
| 20260504150705 | 75 | 239 | 1.0 | 8.0 | 0.00 | 0.01 | 0.01 | 55 | 1017.2 |
| 20260504150205 | 75 | 187 | 1.0 | 6.0 | 0.00 | 0.01 | 0.01 | 58 | 1017.3 |
| 20260504141205 | 71 | 266 | 2.0 | 5.0 | 0.00 | 0.01 | 0.01 | 65 | 1017.7 |
| 20260504140705 | 71 | 179 | 0.0 | 3.0 | 0.00 | 0.01 | 0.01 | 68 | 1018.2 |
| 20260504140206 | 71 | 270 | 2.0 | 5.0 | 0.00 | 0.01 | 0.01 | 66 | 1017.4 |
| 20260504130205 | 58 | 70 | 0.0 | 1.0 | 0.00 | 0.01 | 0.01 | 99 | 1067.8 |
| 20260504120205 | 53 | 248 | 0.0 | 0.0 | 0.00 | 0.01 | 0.01 | 97 | 1062.6 |
| 20260504110705 | 53 | 248 | 0.0 | 0.0 | 0.00 | 0.01 | 0.01 | 97 | 1060.7 |
| 20260504110204 | 53 | 248 | 0.0 | 0.0 | 0.00 | 0.01 | 0.01 | 97 | 1060.7 |
| 20260504100205 | 53 | 248 | 0.0 | 0.0 | 0.00 | 0.01 | 0.01 | 96 | 1059.6 |
| 20260504081705 | 55 | 248 | 0.0 | 0.0 | 0.00 | 0.01 | 0.01 | 95 | 1057.1 |
| 20260504081205 | 55 | 248 | 0.0 | 0.0 | 0.00 | 0.01 | 0.01 | 95 | 1057.0 |
| 20260504080204 | 55 | 248 | 0.0 | 0.0 | 0.00 | 0.01 | 0.01 | 95 | 1056.5 |
| 20260504070204 | 56 | 248 | 0.0 | 1.0 | 0.00 | 0.01 | 0.01 | 94 | 1052.7 |
| 20260504050705 | 57 | 18 | 0.0 | 0.0 | 0.00 | 0.01 | 0.01 | 91 | 1043.2 |
| 20260504050205 | 57 | 18 | 0.0 | 0.0 | 0.00 | 0.02 | 0.01 | 90 | 1042.7 |
| 20260504045704 | 57 | 18 | 0.0 | 0.0 | 0.00 | 0.01 | 0.01 | 90 | 1042.6 |
| 20260504045204 | 57 | 18 | 0.0 | 0.0 | 0.00 | 0.01 | 0.01 | 90 | 1042.7 |
| 20260504044705 | 57 | 18 | 0.0 | 0.0 | 0.00 | 0.01 | 0.01 | 90 | 1042.9 |
| 20260504043705 | 58 | 18 | 0.0 | 0.0 | 0.00 | 0.01 | 0.01 | 90 | 1042.7 |
| 20260504043205 | 58 | 18 | 0.0 | 0.0 | 0.00 | 0.01 | 0.01 | 90 | 1042.5 |
| 20260504042704 | 58 | 18 | 0.0 | 0.0 | 0.00 | 0.01 | 0.01 | 90 | 1041.7 |
| 20260504042206 | 58 | 18 | 0.0 | 0.0 | 0.00 | 0.01 | 0.01 | 90 | 1040.7 |
| 20260504041705 | 58 | 18 | 0.0 | 0.0 | 0.00 | 0.01 | 0.01 | 90 | 1038.8 |
| 20260504041204 | 58 | 18 | 0.0 | 0.0 | 0.00 | 0.01 | 0.01 | 89 | 1038.2 |
| 20260504040704 | 58 | 18 | 0.0 | 0.0 | 0.00 | 0.01 | 0.01 | 89 | 1037.5 |
| 20260504040204 | 58 | 18 | 0.0 | 0.0 | 0.00 | 0.01 | 0.01 | 89 | 1035.8 |
| 20260504035705 | 58 | 18 | 0.0 | 0.0 | 0.00 | 0.01 | 0.01 | 89 | 1033.8 |
| 20260504035205 | 58 | 18 | 0.0 | 0.0 | 0.00 | 0.01 | 0.01 | 88 | 1031.3 |
| 20260504034705 | 58 | 18 | 0.0 | 0.0 | 0.00 | 0.01 | 0.01 | 87 | 1030.3 |
| 20260504033705 | 59 | 78 | 0.0 | 0.0 | 0.00 | 0.01 | 0.01 | 86 | 1026.4 |
| 20260504033204 | 59 | 78 | 0.0 | 0.0 | 0.00 | 0.01 | 0.01 | 86 | 1025.6 |
| 20260504032705 | 59 | 78 | 0.0 | 0.0 | 0.00 | 0.01 | 0.01 | 85 | 1025.0 |
| 20260504032205 | 59 | 78 | 0.0 | 0.0 | 0.00 | 0.01 | 0.01 | 85 | 1024.7 |
| 20260504031705 | 59 | 78 | 0.0 | 0.0 | 0.00 | 0.01 | 0.01 | 84 | 1023.9 |
| 20260504031205 | 59 | 78 | 0.0 | 0.0 | 0.00 | 0.01 | 0.01 | 84 | 1023.7 |
| 20260504030205 | 60 | 78 | 0.0 | 0.0 | 0.00 | 0.01 | 0.01 | 83 | 1023.1 |
| 20260504025704 | 60 | 78 | 0.0 | 0.0 | 0.00 | 0.01 | 0.01 | 82 | 1022.4 |
| 20260504025204 | 60 | 78 | 0.0 | 0.0 | 0.00 | 0.01 | 0.01 | 81 | 1022.1 |
| 20260504024204 | 61 | 78 | 0.0 | 0.0 | 0.00 | 0.01 | 0.01 | 80 | 1022.0 |
| 20260504023705 | 61 | 78 | 0.0 | 0.0 | 0.00 | 0.01 | 0.01 | 80 | 1022.0 |
| 20260504023205 | 61 | 75 | 0.0 | 1.0 | 0.00 | 0.01 | 0.01 | 80 | 1022.2 |
| 20260504022705 | 61 | 0 | 0.0 | 2.0 | 0.00 | 0.01 | 0.01 | 80 | 1022.0 |
| 20260504022204 | 62 | 64 | 0.0 | 2.0 | 0.00 | 0.01 | 0.01 | 79 | 1021.6 |
| 20260504021205 | 62 | 88 | 0.0 | 1.0 | 0.00 | 0.01 | 0.01 | 78 | 1021.4 |
| 20260504020704 | 62 | 40 | 1.0 | 1.0 | 0.00 | 0.01 | 0.01 | 77 | 1021.1 |
| 20260504014704 | 63 | 257 | 0.0 | 0.0 | 0.00 | 0.01 | 0.01 | 75 | 1020.1 |
| 20260504014205 | 64 | 257 | 0.0 | 0.0 | 0.00 | 0.01 | 0.01 | 74 | 1019.7 |
| 20260504013704 | 64 | 257 | 0.0 | 1.0 | 0.00 | 0.01 | 0.01 | 73 | 1019.5 |
| 20260504013204 | 65 | 258 | 0.0 | 0.0 | 0.00 | 0.01 | 0.01 | 73 | 1019.4 |
| 20260504012705 | 65 | 258 | 0.0 | 0.0 | 0.00 | 0.01 | 0.01 | 72 | 1019.2 |
| 20260504012205 | 65 | 258 | 0.0 | 0.0 | 0.00 | 0.01 | 0.01 | 71 | 1019.0 |
| 20260504011705 | 66 | 258 | 0.0 | 0.0 | 0.00 | 0.01 | 0.01 | 70 | 1018.5 |
| 20260504011204 | 66 | 258 | 0.0 | 0.0 | 0.00 | 0.01 | 0.01 | 69 | 1018.3 |
| 20260504010706 | 67 | 258 | 0.0 | 0.0 | 0.00 | 0.01 | 0.01 | 67 | 1018.0 |